Weather History for New Orleans Lakefront, LA

Change the Weather History Date:

Thursday, February 28, 2013

  Actual Average Record
Temperature  
Mean Temperature 52 °F 59 °F  
Max Temperature 57 °F 68 °F 84 °F (1948)
Min Temperature 46 °F 51 °F 32 °F (2002)
Degree Days  
Heating Degree Days 13 7  
Month to date heating degree days 204 253  
Since 1 July heating degree days 889 1109  
Cooling Degree Days 0 1  
Month to date cooling degree days 7 21  
Year to date cooling degree days 32 37  
Growing Degree Days 6 (Base 50)    
Moisture  
Dew Point 35 °F    
Average Humidity 53    
Maximum Humidity 65    
Minimum Humidity 41    
Precipitation  
Precipitation 0.00 in 0.16 in 1.71 in (1995)
Month to date precipitation 7.21 5.30  
Year to date precipitation 13.80 10.45  
Snow  
Snow 0.00 in - - ()
Month to date snowfall 0.0  
Since 1 July snowfall 0.0  
Snow Depth 0.00 in    
Sea Level Pressure  
Sea Level Pressure 30.09 in    
Wind  
Wind Speed 10 mph (NW)    
Max Wind Speed 18 mph    
Max Gust Speed 29 mph    
Visibility 10 miles    
Events      
T = Trace of Precipitation, MM = Missing Value Source: NWS Daily Summary

Daily Weather History Graph

Daily Weather History Graph

Search for Another Location

Airport:

Trip Planner

Search our weather history database for the weather conditions in past years. The results will help you decide how hot, cold, wet, or windy it might be!

Date:

Astronomy

Feb. 28, 2013 Rise Set
Actual Time 6:26 AM CST 5:58 PM CST
Civil Twilight 6:02 AM CST 6:22 PM CST
Nautical Twilight 5:35 AM CST 6:50 PM CST
Astronomical Twilight 5:07 AM CST 7:18 PM CST
Moon 9:06 PM CST (2/28) 7:53 AM CST (2/28)
Length of Visible Light 12h 19m
Length of Day
11h 31m
Waning Gibbous, 90% of the Moon is Illuminated
Feb 28
Waning Gibbous
Mar 4
Last Quarter
Mar 11
New
Mar 19
First Quarter
Mar 27
Full

Hourly Weather History & Observations

Time (CST) Temp. Dew Point Humidity Pressure Visibility Wind Dir Wind Speed Gust Speed Precip Events Conditions
12:53 AM 60.1 °F 42.1 °F 51% 30.04 in 10.0 mi NNW 19.6 mph - N/A   Partly Cloudy
1:53 AM 59.0 °F 39.9 °F 49% 30.04 in 10.0 mi NNW 20.7 mph - N/A   Clear
2:53 AM 57.0 °F 37.0 °F 47% 30.04 in 10.0 mi North 17.3 mph 25.3 mph N/A   Clear
3:53 AM 55.9 °F 37.0 °F 49% 30.05 in 10.0 mi North 19.6 mph - N/A   Clear
4:53 AM 54.0 °F 36.0 °F 51% 30.07 in 10.0 mi NNW 17.3 mph - N/A   Clear
5:53 AM 53.6 °F 35.6 °F 51% 30.10 in 10.0 mi North 10.4 mph - N/A   Clear
6:53 AM 54.0 °F 36.0 °F 51% 30.09 in 10.0 mi NNW 10.4 mph - N/A   Clear
7:53 AM 55.4 °F 35.6 °F 47% 30.13 in 10.0 mi NNW 16.1 mph - N/A   Clear
8:53 AM 55.9 °F 36.0 °F 47% 30.12 in 10.0 mi NNW 12.7 mph - N/A   Clear
9:53 AM 55.9 °F 36.0 °F 47% 30.14 in 10.0 mi NW 12.7 mph - N/A   Clear
10:53 AM 55.0 °F 36.0 °F 49% 30.14 in 10.0 mi NW 11.5 mph - N/A   Clear
11:53 AM 55.9 °F 36.0 °F 47% 30.12 in 10.0 mi WNW 13.8 mph - N/A   Clear
12:53 PM 55.9 °F 36.0 °F 47% 30.09 in 10.0 mi WNW 13.8 mph - N/A   Clear
1:53 PM 57.0 °F 34.0 °F 42% 30.06 in 10.0 mi NW 13.8 mph - N/A   Clear
2:53 PM 57.0 °F 34.0 °F 42% 30.06 in 10.0 mi NW 12.7 mph - N/A   Clear
3:53 PM 55.9 °F 33.1 °F 42% 30.05 in 10.0 mi NNW 13.8 mph - N/A   Clear
4:53 PM 55.0 °F 32.0 °F 42% 30.06 in 10.0 mi NW 15.0 mph - N/A   Clear
5:53 PM 54.0 °F 32.0 °F 43% 30.06 in 10.0 mi NNW 16.1 mph - N/A   Clear
6:53 PM 54.0 °F 32.0 °F 43% 30.09 in 10.0 mi NNW 13.8 mph - N/A   Clear
7:53 PM 54.0 °F 33.1 °F 45% 30.09 in 10.0 mi NW 12.7 mph - N/A   Clear
8:53 PM 55.0 °F 35.1 °F 47% 30.12 in 10.0 mi WNW 16.1 mph - N/A   Clear
9:53 PM 55.0 °F 34.0 °F 45% 30.13 in 10.0 mi NW 13.8 mph - N/A   Clear
10:53 PM 55.0 °F 33.1 °F 43% 30.12 in 10.0 mi NW 12.7 mph - N/A   Clear
11:53 PM 55.0 °F 33.1 °F 43% 30.12 in 10.0 mi NW 10.4 mph - N/A   Clear